Terminal Aerodrome Forecast
Issued by NWS Tampa Bay Area, FL

Home | Current Version | Previous Version | Text Only | Print | Product List | Glossary On
Versions: 1 2 3 4 5 6 7 8 9 10 11 12 13
000
FTUS42 KTBW 220537
TAFFMY
TAF
KFMY 220537Z 2206/2306 VRB04KT P6SM SCT250
     FM221400 05006KT P6SM SCT025 SCT250
     FM221800 05008KT P6SM VCTS SCT035CB
     FM230200 07004KT P6SM SCT050 SCT250=

USA.gov is the U.S. government's official web portal to all federal, state and local government web resources and services.